Location: Gorze? G�rny
(49.8500°N, 19.5000°E)
Time: 11:44:25
(UTC+00:00)

Meteor 1-22 Rocket - Pass Details

Date: 13 May 2021
Orbit: 789 x 939 km, 81.2° (Epoch: 22 June)

Event Time Altitude Azimuth Distance (km) Brightness Sun altitude
Rises 23:18:02 0° 346° (NNW) 3,544 8.6 -21.0°
Reaches altitude 10° 23:20:29 10° 346° (NNW) 2,616 7.7 -20.9°
Maximum altitude 23:26:30 82° 260° (W) 947 4.3 -20.7°
Enters shadow 23:29:03 37° 178° (S) 1,408 4.8 -20.6°
